Location: Limoges
(45.8500°N, 1.2500°E)
Time: 02:03:18
(UTC+01:00)

ISS - Pass Details

Date: 06 December 2020
Orbit: 418 x 419 km, 51.6° (Epoch: 17 January)

Event Time Altitude Azimuth Distance (km) Brightness Sun altitude
Rises 19:47:13 0° 290° (WNW) 2,366 1.1 -26.4°
Reaches altitude 10° 19:49:38 10° 274° (W) 1,498 0.0 -26.8°
Enters shadow 19:51:47 21° 235° (SW) 1,015 -1.2 -27.2°
